Regional Weather Roundup
Issued by NWS

Home | Current Version | Previous Version | Graphics & Text | Print | Product List | Glossary On
Versions: 1 2 3 4 5 6 7 8 9 10 11 12 13 14 15 16 17 18 19 20 21 22 23 24 25 26 27 28 29 30 31 32 33 34 35 36 37 38 39 40 41 42 43 44 45 46 47 48 49 50
502
ASUS45 KBOI 190010
RWRID

IDAHO REGIONAL WEATHER ROUNDUP
NATIONAL WEATHER SERVICE BOISE ID
500 PM MST WED JAN 18 2017

NOTE: "FAIR" INDICATES FEW OR NO CLOUDS BELOW 12000 FEET
WITH NO SIGNIFICANT WEATHER AND/OR OBSTRUCTIONS TO VISIBILITY

IDZ012-014-190100-
SOUTHWEST IDAHO


CITY           SKY/WX    TMP DP  RH WIND       PRES   REMARKS
BOISE          SNOW      30  28  92 SE15      29.79F VSB 1/2 WCI  19
CALDWELL       HVY SNOW  21  18  88 CALM      29.83F VSB 1/4
MOUNTAIN HOME  LGT SNOW  30  30  99 E20       29.82F FOG     WCI  18
$$

IDZ016-017-190100-
SOUTHCENTRAL IDAHO


CITY           SKY/WX    TMP DP  RH WIND       PRES   REMARKS
BURLEY         CLOUDY    33  23  66 NE5       29.83F WCI  29
JEROME         CLOUDY    27  21  78 NE23      29.84S WCI  12
TWIN FALLS     CLOUDY    29  22  75 E12       29.83F WCI  19
$$

IDZ019>023-190100-
SOUTHEAST IDAHO


CITY           SKY/WX    TMP DP  RH WIND       PRES   REMARKS
IDAHO FALLS    CLOUDY    15   9  76 NE7       29.92S WCI   5
POCATELLO      CLOUDY    21  14  74 NE5       29.91F WCI  15
REXBURG        CLOUDY    21  13  71 E3        29.91S
$$

IDZ006-010-011-018-031-032-190100-
CENTRAL IDAHO MOUNTAINS


CITY           SKY/WX    TMP DP  RH WIND       PRES   REMARKS
MCCALL         SNOW      31  29  92 VRB3      29.69F VSB 1/2
HAILEY         LGT SNOW  27  25  93 SE7       29.86F WCI  19
STANLEY          N/A     34  32  92 SE8       29.75F WCI  27
SALMON         CLOUDY    12   9  85 CALM      29.82F
CHALLIS        CLOUDY    16  11  80 CALM      29.80F
$$

IDZ002-004-006-007-026-190100-
NORTHERN IDAHO


CITY           SKY/WX    TMP DP  RH WIND       PRES   REMARKS
LEWISTON       CLOUDY    40  30  67 CALM      29.63S
LOWELL           N/A     33  31  92 N6        29.69F WCI  28
COEUR D`ALENE  CLOUDY    35  33  92 NE7       29.57F WCI  29
MULLAN PASS    CLOUDY    33  30  88 VRB3      29.58F
$$




USA.gov is the U.S. government's official web portal to all federal, state and local government web resources and services.